Home > Weather > Lincoln > Past weeks

Flag for USA Past Weather in Lincoln, Nebraska, USA — Yesterday and Last 2 Weeks

Now
89 °F

Broken clouds.


Feels Like: 91 °F
Forecast: 66 / 87 °F
Wind: 16 mph from Northeast

Location: Lincoln Municipal Airport

Current Time: Jun 30, 2016 at 6:17:16 PM

Latest Report: Jun 30, 2016 at 4:54 PM


Visibility: 10 mi

Pressure: 29.95 "Hg

Humidity: 45%

Dew Point: 65 °F

Location of LincolnLocation

Past Weather in Lincoln — Graph

°F

Lincoln Temperature Yesterday

Maximum temperature yesterday: 89 °F (at 2:54 PM)
Minimum temperature yesterday: 72 °F (at 2:54 AM)
Average temperature yesterday: 80 °F

High & Low Weather Summary for the Past Weeks

 TemperatureHumidityPressure
High101 °F (Jun 15, 4:54 PM)96% (Jun 18, 2:53 AM)30.22 "Hg (Jun 18, 2:53 AM)
Low62 °F (Jun 23, 4:54 AM)19% (Jun 15, 4:54 PM)29.61 "Hg (Jun 22, 6:54 AM)
Average81 °F61%29.97 "Hg
* Reported Jun 15 4:54 PM — Jun 30 4:54 PM, Lincoln, Weather by CustomWeather, © 2016

Note: Actual official high and low records may vary slightly from our data, if they occured in-between our weather recording intervals... More about our weather records

Advertising

Lincoln Weather History for the Previous 24 Hours

Scroll right to see more
 ConditionsComfort  
Time TempWeatherWind HumidityBarometerVisibility
4:54 PM
Thu, Jun 30
89 °FBroken clouds.16 mph45%29.95 "Hg10 mi
3:54 PM88 °FSunny.13 mph40%29.94 "Hg10 mi
2:54 PM90 °FPassing clouds.13 mph41%29.93 "Hg10 mi
1:54 PM88 °FSunny.13 mph40%29.93 "Hg10 mi
12:54 PM88 °FSunny.10 mph36%29.94 "Hg10 mi
11:54 AM86 °FSunny.7 mph42%29.95 "Hg10 mi
10:54 AM81 °FSunny.9 mph54%29.95 "Hg10 mi
9:54 AM79 °FSunny.9 mph60%29.95 "Hg10 mi
8:54 AM76 °FPartly sunny.8 mph67%29.95 "Hg10 mi
7:54 AM74 °FPartly sunny.12 mph71%29.95 "Hg10 mi
6:54 AM71 °FClear.7 mph90%29.92 "Hg9 mi
5:54 AM72 °FClear.5 mph87%29.90 "Hg10 mi
4:54 AM71 °FClear.No wind87%29.91 "Hg10 mi
3:54 AM73 °FPassing clouds.6 mph84%29.93 "Hg10 mi
2:54 AM72 °FClear.5 mph87%29.91 "Hg10 mi
1:54 AM74 °FClear.No wind82%29.93 "Hg10 mi
12:54 AM75 °FClear.3 mph79%29.96 "Hg10 mi
11:54 PM
Wed, Jun 29
75 °FClear.6 mph79%29.96 "Hg10 mi
10:54 PM79 °FPassing clouds.9 mph69%29.95 "Hg10 mi
9:54 PM83 °FMostly cloudy.10 mph59%29.95 "Hg10 mi
8:54 PM82 °FSunny.6 mph58%29.92 "Hg10 mi
7:54 PM86 °FSunny.7 mph49%29.91 "Hg10 mi
6:54 PM88 °FPassing clouds.6 mph43%29.92 "Hg10 mi
Weather by CustomWeather, © 2016

See weather overviewHow to use our weather pages